Location: Fort Wayne
(41.1310°N, 85.1290°W)
Time: 01:22:55
(UTC-04:00)

Tiros 1 despin weight - Visible Passes

Search period start: 29 April 2017 00:00
Search period end: 09 May 2017 00:00
Orbit: 595 x 644 km, 48.2° (Epoch: 27 April)

Date Brightness Start Highest point End Pass type
(mag) Time Alt. Az. Time Alt. Az. Time Alt. Az.
29 Apr ? 21:00:24 10° WNW 21:05:04 70° SSW 21:09:38 10° SE visible
29 Apr ? 22:43:38 10° W 22:46:01 14° SW 22:47:13 13° SSW visible
30 Apr ? 21:17:38 10° WNW 21:21:57 38° SW 21:26:13 10° SSE visible
01 May ? 21:35:16 10° W 21:38:42 20° SW 21:42:06 10° S visible
